Location: *
(13.2257°S, 48.7193°W)
Time: 19:36:59
(UTC+00:00)

EPKM - Visible Passes

Search period start: 18 May 2026 00:00
Search period end: 28 May 2026 00:00
Orbit: 277 x 16608 km, 25.7° (Epoch: 18 May)

Date Brightness Start Highest point End Pass type
(mag) Time Alt. Az. Time Alt. Az. Time Alt. Az.
18 May 7.5 02:38:11 10° WSW 02:49:06 20° WSW 02:49:06 20° WSW visible
18 May 6.8 19:16:27 10° WNW 22:22:40 75° SSW 22:46:09 31° ESE visible
19 May 6.5 20:35:23 10° WNW 23:33:01 65° SSW 23:42:28 50° SE visible
20 May 6.5 22:19:15 10° W 00:38:44 59° S 00:38:44 59° S visible
22 May 6.9 00:38:17 10° W 01:35:01 44° SW 01:35:01 44° SW visible
22 May 7.3 17:45:20 10° NW 20:37:31 84° SW 21:31:56 10° ESE visible
23 May 7.4 02:14:31 10° WSW 02:31:15 25° WSW 02:31:15 25° WSW visible
23 May 6.9 18:53:32 10° WNW 21:59:44 74° SSW 22:28:13 26° ESE visible
24 May 6.5 20:09:37 10° WNW 23:12:09 66° SSW 23:24:23 45° SE visible
25 May 6.4 21:46:09 10° W 00:18:52 61° S 00:20:31 60° S visible
27 May 6.7 00:04:09 10° W 01:16:40 50° SW 01:16:40 50° SW visible
